{"data":{"norad_id":58457,"intl_designator":"2023-183W","name":"STARLINK-30958","alt_names":[],"object_type":"PAYLOAD","status":"ACTIVE","operator":null,"country":"US","launch_date":"2023-11-28","launch_site_code":"AFETR","launch_vehicle":null,"mission":null,"orbit_class":"UNKNOWN","rcs_meters":null,"size_class":null,"mass_kg":null,"dimensions":null,"purposes":["comms"],"wikipedia_slug":null,"has_3d_model":false,"image_url":null,"decayed_at":null,"tle_current":{"epoch":"2026-09-20T18:32:33.653472Z","epoch_age_seconds":123266,"freshness":"FRESH","line1":"1 58457U 23183W   26263.77261173  .00000289  00000+0  20032-4 0  9998","line2":"2 58457  43.0038  19.5603 0001034 274.3266  85.7468 15.27580135156570","mean_motion":15.27580135,"eccentricity":0.0001034,"inclination_deg":43.0038,"raan_deg":19.5603,"arg_perigee_deg":274.3266,"mean_anomaly_deg":85.7468,"bstar":2.0032e-5,"rev_number":15657,"period_min":94.266740382821,"perigee_km":482.33924520059,"apogee_km":483.75813840165,"semimajor_km":6861.1856918011,"source":"CELESTRAK","updated_at":"2026-09-21T09:00:33.879461Z"}}}